星链-31049 (STARLINK-31049 )

导读

STARLINK-31049是美国SpaceX星链互联网卫星星座中的一颗卫星,于2023年12月8日发射入轨。星链星座旨在为全球提供低延迟、高速率的宽带互联网服务,该卫星是星链大规模组网部署中的组成部分,承担卫星互联网信号转发任务,服务全球用户的互联网接入需求。

基本信息
目录编号:
58543
目录名称:
STARLINK-31049
国际标识:
2023-192N
轨道中心:
EARTH
卫星名称:
星链-31049
卫星全名:
星链-31049 (STARLINK-31049 )
卫星状态:
在轨 (已飞行1008 天)
发射日期:
2023-12-08 UTC
国别 :
美国 (US)
星等 :
--
该卫星已列入 空间交会检测服务 Space Conjunction Data Service (SCDS) ,当前飞行风险评估等级: 无高风险
轨道信息
数据来源 国际轨道数据
星历时间: 2026-09-11T14:20:35+0800
10小时前
查看轨道信息
半长轴: 6840.864km
偏心率: 0.0001475
轨道倾角: 53.160°
近地点辐角 90.611°
升交点赤经 276.798°
平近点角 269.506°
近地点: 461.717km
远地点: 463.737km
周期: 93.848分钟
每日圈数: 15.343921
详细信息
固有亮度:
5
最大亮度:
0.3
卫星平台:
Starlink v2.0 mini
覆盖范围:
全球
运营商:
太空探索技术公司
运营商所在国:
美国
制造商(研发单位):
太空探索技术公司
制造商所在国:
美国
使用方式:
暂无
卫星简介
星链(Starlink)计划是由太空探索技术公司(SpaceX)提出的一个巨型低轨卫星互联网星座项目,计划在2019年至2024年间在太空搭建由约1.2万颗卫星组成的“星链”网络,其中1584颗将部署在地球上空550千米处的近地轨道,并从2020年开始工作。该卫星仍在工作。
2D轨道图
3D轨道图
轨道高度分析图
轨道倾角分析图
轨道综合分析图
查看轨道综合分析图
交会数据列表
事件ID 空间交会对象 最接近时刻(TCA) 交会距离 交会风险概率(CRP) 交会风险指数(CRI) 操作
CDM_260914-062005-854306-817621
2026-09-14T
06:20:17+0000
0.652 km
远距离
9.12044E-5 中风险 0.74
CDM_260914-032405-854306-491421
2026-09-14T
03:24:28+0000
0.830 km
远距离
3.158099E-5 中风险 0.65
CDM_260913-161105-854306-476721
2026-09-13T
16:11:01+0000
0.966 km
远距离
2.671281E-5 中风险 0.64
CDM_260914-072305-854306-611621
2026-09-14T
07:23:43+0000
1.007 km
极远距离
7.5421E-6 低风险 0.53
CDM_260914-032905-854306-611621
2026-09-14T
03:29:14+0000
1.312 km
极远距离
3.107779E-6 低风险 0.45
CDM_260914-035405-854306-476721
2026-09-14T
03:54:25+0000
2.329 km
极远距离
1.793112E-6 低风险 0.4
CDM_260914-044605-854306-817621
2026-09-14T
04:46:30+0000
2.407 km
极远距离
1.659001E-6 低风险 0.39
CDM_260914-052805-854306-476721
2026-09-14T
05:28:12+0000
2.899 km
极远距离
1.2526E-6 低风险 0.37
CDM_260914-045805-854306-491421
2026-09-14T
04:58:15+0000
2.419 km
极远距离
1.250104E-6 低风险 0.37
CDM_260909-062405-317105-854322
2026-09-09T
06:24:40+0000
2.883 km
极远距离
1.049348E-6 低风险 0.35
与全量物体交会距离演化趋势
与全量物体交会风险概率演化趋势